Home   Weather   Ashgabat   Past weeks

Flag for Turkmenistan Past Weather in Ashgabat, Turkmenistan — Yesterday and Last 2 Weeks

Now
46 °F

Passing clouds.


Feels Like: 45 °F
Forecast: 43 / 54 °F
Wind: 3 mph from West

Location: Ashgabat

Current Time: Dec 5, 2016 at 5:30:04 am

Latest Report: Dec 5, 2016 at 4:00 am


Visibility: N/A

Pressure: 30.12 "Hg

Humidity: 57%

Dew Point: 32 °F

Location of AshgabatLocation

Past Weather in Ashgabat — Graph

°F

Ashgabat Temperature Yesterday

Maximum temperature yesterday: 66 °F (at 2:00 pm)
Minimum temperature yesterday: 46 °F (at 4:00 am)
Average temperature yesterday: 56 °F

High & Low Weather Summary for the Past Weeks

 TemperatureHumidityPressure
High75 °F (Dec 3, 1:00 pm)87% (Nov 20, 5:00 am)30.80 "Hg (Nov 20, 5:00 am)
Low12 °F (Nov 22, 5:00 am)11% (Dec 1, 1:00 pm)29.59 "Hg (Dec 2, 6:00 pm)
Average39 °F48%30.31 "Hg
* Reported Nov 20 4:00 am — Dec 5 4:00 am, Ashgabat, Weather by CustomWeather, © 2016

Note: Actual official high and low records may vary slightly from our data, if they occured in-between our weather recording intervals... More about our weather records

Advertising

Ashgabat Weather History for the Previous 24 Hours

Scroll right to see more
 ConditionsComfort  
Time TempWeatherWind HumidityBarometerVisibility
4:00 am
Mon, Dec 5
46 °FPassing clouds.3 mph57%30.12 "HgN/A
3:00 am46 °FClear.6 mph57%30.12 "HgN/A
2:00 am46 °FClear.3 mph57%30.15 "HgN/A
1:00 am46 °FClear.2 mph57%30.18 "Hg6 mi
12:00 am50 °FClear.5 mph50%30.21 "Hg6 mi
11:00 pm
Sun, Dec 4
48 °FClear.No wind54%30.21 "Hg5 mi
10:00 pm52 °FPassing clouds.1 mph50%30.21 "Hg6 mi
9:00 pm54 °FPassing clouds.5 mph47%30.21 "Hg4 mi
8:00 pm55 °FPassing clouds.3 mph44%30.24 "Hg5 mi
7:00 pm57 °FPassing clouds.2 mph41%30.24 "Hg6 mi
6:00 pm63 °FPartly sunny.5 mph34%30.24 "HgN/A
5:00 pm66 °FScattered clouds.5 mph30%30.24 "HgN/A
4:00 pm66 °FPassing clouds.6 mph28%30.24 "HgN/A
3:00 pm66 °FPassing clouds.7 mph30%30.24 "HgN/A
2:00 pm66 °FClear.8 mph28%30.27 "HgN/A
1:00 pm64 °FClear.6 mph32%30.30 "Hg6 mi
12:00 pm64 °FClear.1 mph32%30.33 "HgN/A
11:00 am63 °FClear.1 mph32%30.33 "Hg6 mi
10:00 am57 °FPassing clouds.5 mph39%30.33 "HgN/A
9:00 am50 °FPassing clouds.1 mph50%30.30 "HgN/A
8:00 am50 °FClear.2 mph50%30.27 "HgN/A
7:00 am48 °FClear.No wind54%30.24 "HgN/A
6:00 am48 °FClear.5 mph54%30.21 "HgN/A
5:00 am46 °FClear.5 mph57%30.18 "HgN/A
Weather by CustomWeather, © 2016

See weather overviewHow to use our weather pages